Saltar para o conteúdo principal

Castelo Branco

ID 1200570 · 39.8334, -7.4668 mapa

Última leitura · 2026-05-09 19:00 (Europe/Lisbon)

Temperatura
12.2 °C
Humidade
99 %
Pressão
1,007.3 hPa
Precipitação
1.3 mm
Radiação
332 W/m²
Velocidade do vento
17.3 km/h
Direcção do vento
W · Oeste

Histórico de 24 horas

Hora (Europe/Lisbon) Temperatura Humidade Pressão Chuva Vento Direcção
2026-05-09 19:00 12.2 °C 99 % 1,007.3 1.3 mm 17.3 km/h W
2026-05-09 18:00 13.8 °C 100 % 1,006.0 0.1 mm 13.0 km/h SW
2026-05-09 17:00 16.9 °C 67 % 1,004.8 2.7 mm 13.3 km/h SW
2026-05-09 16:00 17.2 °C 73 % 1,004.7 0.0 mm 20.9 km/h SW
2026-05-09 15:00 15.5 °C 100 % 1,004.5 0.2 mm 11.2 km/h SW
2026-05-09 14:00 13.6 °C 100 % 1,004.5 5.5 mm 12.6 km/h S
2026-05-09 13:00 12.0 °C 100 % 1,004.4 9.1 mm 7.2 km/h NW
2026-05-09 12:00 12.6 °C 100 % 1,005.1 0.2 mm 13.3 km/h SE
2026-05-09 11:00 11.6 °C 100 % 1,005.4 2.1 mm 14.8 km/h SE
2026-05-09 10:00 11.2 °C 100 % 1,005.5 3.2 mm 14.0 km/h SE
2026-05-09 09:00 12.2 °C 95 % 1,005.3 2.3 mm 21.2 km/h SE
2026-05-09 08:00 12.4 °C 90 % 1,005.1 0.0 mm 12.6 km/h E
2026-05-09 07:00 11.9 °C 99 % 1,005.3 0.0 mm 11.2 km/h SE
2026-05-09 06:00 11.7 °C 100 % 1,005.7 0.0 mm 11.2 km/h E
2026-05-09 05:00 11.7 °C 100 % 1,006.2 0.0 mm 10.8 km/h SE
2026-05-09 04:00 11.7 °C 100 % 1,006.8 0.0 mm 7.6 km/h E
2026-05-09 03:00 12.4 °C 100 % 1,007.1 0.1 mm 5.8 km/h SE
2026-05-09 02:00 13.0 °C 98 % 1,007.4 0.2 mm 7.2 km/h S
2026-05-09 01:00 13.4 °C 90 % 1,007.6 0.0 mm 10.4 km/h SW
2026-05-09 00:00 14.1 °C 74 % 1,007.5 0.0 mm 9.7 km/h SW
2026-05-08 23:00 15.2 °C 61 % 1,007.2 0.0 mm 13.0 km/h SW
2026-05-08 22:00 16.2 °C 55 % 1,006.5 0.0 mm 7.6 km/h S
2026-05-08 21:00 17.3 °C 47 % 1,005.9 0.0 mm 4.3 km/h SE
2026-05-08 20:00 18.2 °C 43 % 1,006.0 0.0 mm 6.5 km/h SE